Regional Weather Roundup
Issued by NWS

Home | Current Version | Previous Version | Graphics & Text | Print | Product List | Glossary On
Versions: 1 2 3 4 5 6 7 8 9 10 11 12 13 14 15 16 17 18 19 20 21 22 23 24 25 26 27 28 29 30 31 32 33 34 35 36 37 38 39 40 41 42 43 44 45 46 47 48 49 50
146
ASUS43 KOAX 200110
RWRNE

WEATHER ROUNDUP FOR NEBRASKA
NATIONAL WEATHER SERVICE OMAHA NE
700 PM CST MON FEB 19 2018

NOTES: SATELLITE DATA IS BEING USED TO AUGMENT CLOUD COVER ABOVE
       12000 FEET.
       "FAIR" INDICATES FEW OR NO CLOUDS BELOW 12,000 FEET WITH NO
       SIGNIFICANT WEATHER AND/OR OBSTRUCTIONS TO VISIBILITY.


NEZ001>004-019>022-054>056-200200-
NEBRASKA PANHANDLE

CITY           SKY/WX    TMP DP  RH WIND       PRES   REMARKS
SCOTTSBLUFF    LGT SNOW   4  -3  73 E13       29.75F WCI -13
ALLIANCE       LGT SNOW   2  -3  80 N16       29.78S WCI -18
CHADRON        LGT SNOW   1  -3  83 NE14      29.91F FOG     WCI -17
GORDON         LGT SNOW   2  -4  78 N14       29.85R WCI -16
KIMBALL        FLURRIES   3  -2  79 N13       29.69R WCI -14
SIDNEY         LGT SNOW   5   0  79 N15       29.74R WCI -13
$$

NEZ057>060-069>072-079>082-200200-
SOUTHWEST NEBRASKA

CITY           SKY/WX    TMP DP  RH WIND       PRES   REMARKS
NORTH PLATTE   FLURRIES  10   5  80 NE14      29.84R WCI  -6
IMPERIAL       FLURRIES  11   7  84 NE13      29.78S WCI  -4
LEXINGTON      FLURRIES  14   9  81 N10       29.85R WCI   1
MCCOOK         LGT SNOW  15  11  83 N13       29.83R FOG     WCI   1
OGALLALA       LGT SNOW  11   7  83 N15       29.81R WCI  -5
$$

NEZ005>010-023>029-035>040-094-200200-
NORTH CENTRAL NEBRASKA

CITY           SKY/WX    TMP DP  RH WIND       PRES   REMARKS
VALENTINE      LGT SNOW   7   1  76 N15G23    29.89F WCI -10
AINSWORTH      CLOUDY     8   5  89 N14G23    29.87S FOG     WCI  -9
BROKEN BOW     LGT SNOW  11   6  81 N17       29.84R WCI  -6
O`NEILL        FLURRIES  11   8  88 N17G23    29.88F WCI  -6
ORD            LGT SNOW  12   8  84 N13       29.86R FOG     WCI  -3
THEDFORD       CLOUDY     8   4  86 N15       29.85R WCI -10
$$

NEZ041-046>049-061>064-073>077-083>087-200200-
SOUTH CENTRAL NEBRASKA

CITY           SKY/WX    TMP DP  RH WIND       PRES   REMARKS
GRAND ISLAND   FLURRIES  15  11  83 N16       29.86S WCI  -1
AURORA         CLOUDY    16  12  84 N12       29.86R WCI   3
HASTINGS       FLURRIES  15  11  83 NE12      29.86R WCI   2
HEBRON         CLOUDY    21  17  86 N7        29.88R WCI  12
HOLDREGE       FLURRIES  14  12  90 N12       29.84R WCI   1
KEARNEY        FLURRIES  13  10  88 NE14      29.87R WCI  -2
YORK           CLOUDY    18  18 100 N13       29.86F WCI   4
$$

NEZ011>018-030>034-042>045-200200-
NORTHEAST NEBRASKA

CITY           SKY/WX    TMP DP  RH WIND       PRES   REMARKS
NORFOLK        FLURRIES  17  14  88 N9        29.86R WCI   6
ALBION         FLURRIES  15  11  84 N9        29.88R WCI   3
BLAIR          CLOUDY    22  20  93 N6        29.84F WCI  14
COLUMBUS       FLURRIES  18  15  88 N9        29.89R WCI   7
FREMONT        CLOUDY    21  19  93 NW7       29.89R WCI  12
TEKAMAH        CLOUDY    21  18  88 N13       29.89R WCI   9
WAYNE          CLOUDY    18  17  96 N10       29.88R WCI   6
$$

NEZ050>053-065>068-078-088>093-200200-
SOUTHEAST NEBRASKA

CITY           SKY/WX    TMP DP  RH WIND       PRES   REMARKS
LINCOLN        FLURRIES  20  17  88 N12       29.90R WCI   8
OMAHA EPPLEY   FRZ DRZL  22  20  92 NW15      29.86F WCI   9
BEATRICE       CLOUDY    24  22  93 N8        29.87R WCI  15
FALLS CITY     CLOUDY    25  23  92 N10       29.85R WCI  15
NEBRASKA CITY  CLOUDY    24  24 100 NW7       29.87R FOG     WCI  15
PLATTSMOUTH    CLOUDY    23  22  96 N7        29.86R WCI  14
$$

NEZ044-045-051>053-067-200200-
OMAHA AREA

CITY           SKY/WX    TMP DP  RH WIND       PRES   REMARKS
OMAHA EPPLEY   FRZ DRZL  22  20  92 NW15      29.86F WCI   9
BLAIR          CLOUDY    22  20  93 N6        29.84F WCI  14
FREMONT        CLOUDY    21  19  93 NW7       29.89R WCI  12
MILLARD        CLOUDY    24  21  89 NW6       29.88R WCI  17
OFFUTT AFB     CLOUDY    22  20  90 N8        29.86R WCI  13
PLATTSMOUTH    CLOUDY    23  22  96 N7        29.86R WCI  14
WAHOO          CLOUDY    22  19  89 N9        29.87R WCI  11
$$




USA.gov is the U.S. government's official web portal to all federal, state and local government web resources and services.